Time,TemperatureF,DewpointF,PressureIn,WindDirection,WindDirectionDegrees,WindSpeedMPH,WindSpeedGustMPH,Humidity,HourlyPrecipIn,Conditions,Clouds,dailyrainin,SolarRadiationWatts/m^2,SoftwareType,DateUTC
2013-06-07 00:09:00,55.8,52.0,29.88,ENE,71,0.0,3.0,86,0.00,,,0.00,0,weatherlink.com 1.10,2013-06-07 05:09:00,
2013-06-07 00:24:00,55.9,53.0,29.88,ENE,71,1.0,3.0,89,0.00,,,0.00,0,weatherlink.com 1.10,2013-06-07 05:24:00,
2013-06-07 00:39:00,55.9,53.0,29.88,ENE,71,0.0,3.0,91,0.00,,,0.00,0,weatherlink.com 1.10,2013-06-07 05:39:00,
2013-06-07 00:54:00,56.1,54.0,29.88,ENE,71,5.0,7.0,92,0.00,,,0.00,0,weatherlink.com 1.10,2013-06-07 05:54:00,
2013-06-07 01:09:00,56.0,54.0,29.88,ENE,57,7.0,8.0,93,0.00,,,0.00,0,weatherlink.com 1.10,2013-06-07 06:09:00,
2013-06-07 01:24:00,56.0,54.0,29.88,ENE,57,3.0,5.0,93,0.00,,,0.00,0,weatherlink.com 1.10,2013-06-07 06:24:00,
2013-06-07 01:39:00,55.9,54.0,29.88,NE,55,0.0,4.0,93,0.00,,,0.00,0,weatherlink.com 1.10,2013-06-07 06:39:00,
2013-06-07 01:54:00,55.8,54.0,29.88,NE,55,1.0,3.0,93,0.00,,,0.00,0,weatherlink.com 1.10,2013-06-07 06:54:00,
2013-06-07 02:09:00,55.7,54.0,29.88,NE,55,3.0,4.0,93,0.00,,,0.00,0,weatherlink.com 1.10,2013-06-07 07:09:00,
2013-06-07 02:24:00,55.5,54.0,29.87,NE,55,1.0,3.0,93,0.00,,,0.00,0,weatherlink.com 1.10,2013-06-07 07:24:00,
2013-06-07 02:39:00,55.4,54.0,29.87,NE,55,0.0,4.0,93,0.00,,,0.00,0,weatherlink.com 1.10,2013-06-07 07:39:00,
2013-06-07 02:54:00,55.4,54.0,29.87,NE,55,4.0,4.0,93,0.00,,,0.00,0,weatherlink.com 1.10,2013-06-07 07:54:00,
2013-06-07 03:09:00,55.4,54.0,29.87,NE,55,2.0,5.0,93,0.00,,,0.00,0,weatherlink.com 1.10,2013-06-07 08:09:00,
2013-06-07 03:24:00,55.3,53.0,29.87,NE,47,4.0,6.0,93,0.00,,,0.00,0,weatherlink.com 1.10,2013-06-07 08:24:00,
2013-06-07 03:39:00,55.3,53.0,29.87,NNE,24,2.0,7.0,93,0.00,,,0.00,0,weatherlink.com 1.10,2013-06-07 08:39:00,
2013-06-07 03:54:00,55.1,53.0,29.87,NNE,13,3.0,8.0,93,0.00,,,0.00,0,weatherlink.com 1.10,2013-06-07 08:54:00,
2013-06-07 04:09:00,54.9,53.0,29.87,NNE,25,4.0,7.0,92,0.00,,,0.00,0,weatherlink.com 1.10,2013-06-07 09:09:00,
2013-06-07 04:24:00,54.8,53.0,29.87,NNE,24,0.0,5.0,92,0.00,,,0.00,0,weatherlink.com 1.10,2013-06-07 09:24:00,
2013-06-07 04:39:00,54.6,52.0,29.87,NNE,23,6.0,8.0,91,0.00,,,0.00,0,weatherlink.com 1.10,2013-06-07 09:39:00,
2013-06-07 04:54:00,54.4,52.0,29.87,NNE,24,5.0,10.0,91,0.00,,,0.00,0,weatherlink.com 1.10,2013-06-07 09:54:00,
2013-06-07 05:09:00,54.4,52.0,29.87,NNE,22,3.0,9.0,90,0.00,,,0.00,0,weatherlink.com 1.10,2013-06-07 10:09:00,
2013-06-07 05:24:00,54.3,52.0,29.88,NNE,20,6.0,9.0,90,0.00,,,0.00,0,weatherlink.com 1.10,2013-06-07 10:24:00,
2013-06-07 05:39:00,54.2,51.0,29.88,NNE,22,3.0,7.0,89,0.00,,,0.00,7,weatherlink.com 1.10,2013-06-07 10:39:00,
2013-06-07 05:54:00,54.1,51.0,29.88,NNE,22,3.0,5.0,89,0.00,,,0.00,11,weatherlink.com 1.10,2013-06-07 10:54:00,
2013-06-07 06:09:00,54.1,51.0,29.89,NNE,22,0.0,4.0,88,0.00,,,0.00,18,weatherlink.com 1.10,2013-06-07 11:09:00,
2013-06-07 06:23:00,54.1,51.0,29.89,NNE,22,0.0,5.0,88,0.00,,,0.00,26,weatherlink.com 1.10,2013-06-07 11:23:00,
2013-06-07 06:39:00,54.2,51.0,29.89,NNE,22,3.0,4.0,87,0.00,,,0.00,56,weatherlink.com 1.10,2013-06-07 11:39:00,
2013-06-07 06:54:00,54.4,51.0,29.89,NNE,22,4.0,5.0,87,0.00,,,0.00,95,weatherlink.com 1.10,2013-06-07 11:54:00,
2013-06-07 07:09:00,54.8,51.0,29.89,NNE,19,1.0,6.0,86,0.00,,,0.00,123,weatherlink.com 1.10,2013-06-07 12:09:00,
2013-06-07 07:24:00,55.1,51.0,29.90,NNE,19,2.0,6.0,85,0.00,,,0.00,123,weatherlink.com 1.10,2013-06-07 12:24:00,
2013-06-07 07:39:00,55.7,51.0,29.90,North,11,0.0,7.0,85,0.00,,,0.00,195,weatherlink.com 1.10,2013-06-07 12:39:00,
2013-06-07 07:54:00,56.5,51.0,29.90,NNE,28,3.0,10.0,83,0.00,,,0.00,183,weatherlink.com 1.10,2013-06-07 12:54:00,
2013-06-07 08:10:00,56.0,51.0,29.91,NNE,30,8.0,10.0,83,0.00,,,0.00,125,weatherlink.com 1.10,2013-06-07 13:10:00,
2013-06-07 08:25:00,56.4,52.0,29.91,NNE,21,5.0,9.0,85,0.00,,,0.00,301,weatherlink.com 1.10,2013-06-07 13:25:00,
2013-06-07 08:40:00,57.9,52.0,29.91,NE,40,7.0,12.0,82,0.00,,,0.00,396,weatherlink.com 1.10,2013-06-07 13:40:00,
2013-06-07 08:55:00,59.0,53.0,29.92,NNE,29,7.0,10.0,80,0.00,,,0.00,473,weatherlink.com 1.10,2013-06-07 13:55:00,
2013-06-07 09:10:00,59.0,53.0,29.92,NE,39,7.0,11.0,80,0.00,,,0.00,482,weatherlink.com 1.10,2013-06-07 14:10:00,
2013-06-07 09:25:00,59.3,53.0,29.92,NNE,25,6.0,8.0,80,0.00,,,0.00,457,weatherlink.com 1.10,2013-06-07 14:25:00,
2013-06-07 09:40:00,60.4,54.0,29.92,NNE,23,2.0,9.0,78,0.00,,,0.00,494,weatherlink.com 1.10,2013-06-07 14:40:00,
2013-06-07 09:55:00,60.4,53.0,29.91,North,355,4.0,9.0,77,0.00,,,0.00,605,weatherlink.com 1.10,2013-06-07 14:55:00,
2013-06-07 10:10:00,60.3,53.0,29.91,North,10,4.0,8.0,77,0.00,,,0.00,580,weatherlink.com 1.10,2013-06-07 15:10:00,
2013-06-07 10:25:00,61.7,55.0,29.91,NE,52,8.0,11.0,78,0.00,,,0.00,800,weatherlink.com 1.10,2013-06-07 15:25:00,
2013-06-07 10:40:00,62.1,54.0,29.91,NNE,26,8.0,12.0,75,0.00,,,0.00,473,weatherlink.com 1.10,2013-06-07 15:40:00,
2013-06-07 10:55:00,62.6,54.0,29.91,NE,38,8.0,10.0,73,0.00,,,0.00,649,weatherlink.com 1.10,2013-06-07 15:55:00,
2013-06-07 11:10:00,63.5,55.0,29.91,NNE,21,2.0,10.0,74,0.00,,,0.00,911,weatherlink.com 1.10,2013-06-07 16:10:00,
2013-06-07 11:25:00,64.0,54.0,29.90,NE,47,3.0,10.0,71,0.00,,,0.00,788,weatherlink.com 1.10,2013-06-07 16:25:00,
2013-06-07 11:40:00,64.2,56.0,29.90,North,5,5.0,10.0,75,0.00,,,0.00,896,weatherlink.com 1.10,2013-06-07 16:40:00,
2013-06-07 11:56:00,64.8,56.0,29.90,NNE,33,4.0,10.0,72,0.00,,,0.00,991,weatherlink.com 1.10,2013-06-07 16:56:00,
2013-06-07 12:10:00,64.7,56.0,29.89,North,355,4.0,10.0,73,0.00,,,0.00,1063,weatherlink.com 1.10,2013-06-07 17:10:00,
2013-06-07 12:25:00,65.0,55.0,29.89,NNE,20,4.0,12.0,71,0.00,,,0.00,318,weatherlink.com 1.10,2013-06-07 17:25:00,
2013-06-07 12:40:00,65.8,57.0,29.89,ENE,74,5.0,12.0,72,0.00,,,0.00,991,weatherlink.com 1.10,2013-06-07 17:40:00,
2013-06-07 12:55:00,66.2,55.0,29.89,ENE,75,7.0,11.0,68,0.00,,,0.00,1072,weatherlink.com 1.10,2013-06-07 17:55:00,
2013-06-07 13:10:00,66.9,55.0,29.88,NE,51,1.0,11.0,65,0.00,,,0.00,1148,weatherlink.com 1.10,2013-06-07 18:10:00,
2013-06-07 14:10:00,67.1,53.0,29.88,ENE,68,7.0,9.0,62,0.00,,,0.00,1146,weatherlink.com 1.10,2013-06-07 19:10:00,
2013-06-07 14:25:00,68.6,54.0,29.87,NE,56,5.0,10.0,60,0.00,,,0.00,1032,weatherlink.com 1.10,2013-06-07 19:25:00,
2013-06-07 14:40:00,68.0,52.0,29.87,NNE,30,5.0,9.0,56,0.00,,,0.00,292,weatherlink.com 1.10,2013-06-07 19:40:00,
2013-06-07 14:55:00,67.8,52.0,29.87,ENE,63,8.0,8.0,58,0.00,,,0.00,668,weatherlink.com 1.10,2013-06-07 19:55:00,
2013-06-07 15:25:00,68.5,52.0,29.87,ENE,74,7.0,9.0,55,0.00,,,0.00,411,weatherlink.com 1.10,2013-06-07 20:25:00,
2013-06-07 15:40:00,68.1,51.0,29.86,ENE,62,5.0,7.0,54,0.00,,,0.00,520,weatherlink.com 1.10,2013-06-07 20:40:00,
2013-06-07 15:55:00,69.2,51.0,29.86,NE,48,0.0,7.0,52,0.00,,,0.00,1025,weatherlink.com 1.10,2013-06-07 20:55:00,
2013-06-07 16:10:00,69.6,52.0,29.86,NNE,32,3.0,9.0,53,0.00,,,0.00,374,weatherlink.com 1.10,2013-06-07 21:10:00,
2013-06-07 16:26:00,68.4,52.0,29.85,ENE,62,7.0,10.0,57,0.00,,,0.00,190,weatherlink.com 1.10,2013-06-07 21:26:00,
2013-06-07 16:41:00,68.4,52.0,29.85,ENE,68,7.0,10.0,56,0.00,,,0.00,682,weatherlink.com 1.10,2013-06-07 21:41:00,
2013-06-07 17:11:00,69.5,51.0,29.85,NNE,13,3.0,9.0,53,0.00,,,0.00,348,weatherlink.com 1.10,2013-06-07 22:11:00,
2013-06-07 17:26:00,69.0,52.0,29.84,NE,52,4.0,10.0,55,0.00,,,0.00,464,weatherlink.com 1.10,2013-06-07 22:26:00,
2013-06-07 18:11:00,69.8,53.0,29.84,NE,39,2.0,9.0,56,0.00,,,0.00,427,weatherlink.com 1.10,2013-06-07 23:11:00,
2013-06-07 18:26:00,69.8,53.0,29.84,ENE,69,2.0,11.0,55,0.00,,,0.00,408,weatherlink.com 1.10,2013-06-07 23:26:00,
2013-06-07 18:56:00,68.1,53.0,29.84,East,93,6.0,11.0,59,0.00,,,0.00,139,weatherlink.com 1.10,2013-06-07 23:56:00,
2013-06-07 19:11:00,68.3,52.0,29.84,East,83,6.0,10.0,56,0.00,,,0.00,186,weatherlink.com 1.10,2013-06-08 00:11:00,
2013-06-07 19:41:00,67.8,50.0,29.84,ENE,77,5.0,5.0,54,0.00,,,0.00,58,weatherlink.com 1.10,2013-06-08 00:41:00,
2013-06-07 19:56:00,67.1,52.0,29.84,ENE,77,2.0,4.0,58,0.00,,,0.00,44,weatherlink.com 1.10,2013-06-08 00:56:00,
2013-06-07 20:11:00,66.4,51.0,29.85,ENE,77,0.0,0.0,58,0.00,,,0.00,19,weatherlink.com 1.10,2013-06-08 01:11:00,
2013-06-07 20:41:00,64.3,53.0,29.85,ENE,77,0.0,1.0,68,0.00,,,0.00,0,weatherlink.com 1.10,2013-06-08 01:41:00,
2013-06-07 20:56:00,63.4,53.0,29.85,ENE,77,0.0,1.0,70,0.00,,,0.00,0,weatherlink.com 1.10,2013-06-08 01:56:00,
2013-06-07 21:11:00,62.4,54.0,29.85,ENE,77,0.0,0.0,73,0.00,,,0.00,0,weatherlink.com 1.10,2013-06-08 02:11:00,
2013-06-07 21:26:00,61.8,53.0,29.85,ENE,77,0.0,1.0,73,0.00,,,0.00,0,weatherlink.com 1.10,2013-06-08 02:26:00,
2013-06-07 21:56:00,60.2,53.0,29.85,ENE,77,0.0,0.0,78,0.00,,,0.00,0,weatherlink.com 1.10,2013-06-08 02:56:00,
2013-06-07 22:41:00,57.7,53.0,29.86,ENE,77,0.0,0.0,84,0.00,,,0.00,0,weatherlink.com 1.10,2013-06-08 03:41:00,
2013-06-07 23:11:00,56.6,53.0,29.86,ENE,77,0.0,3.0,86,0.00,,,0.00,0,weatherlink.com 1.10,2013-06-08 04:11:00,
2013-06-07 23:56:00,55.4,52.0,29.85,ENE,77,1.0,3.0,88,0.00,,,0.00,0,weatherlink.com 1.10,2013-06-08 04:56:00,